Helicity
37 42 72 123 102 9 12 20 163 199 238 269 287 234 97 69 56 74 61 69 106 36 42 48 32 28 15 8 2 27 12 -7 -21 18 4 59 13 54 61 62 47 60 96 122 92
38 38 29 30 79 91 -15 -24 -34 121 203 225 276 315 263 91 81 86 68 58 29 57 61 46 43 38 42 30 47 24 22 -18 9 51 10 50 2 23 18 17 41 47 124 97 75
38 40 36 26 12 42 77 -64 -54 -67 85 224 233 318 351 204 68 43 32 68 98 72 67 74 67 51 49 45 43 23 -5 21 29 79 32 34 20 -8 4 -24 17 57 89 102 84
46 43 43 34 18 5 10 21 -70 -54 -79 5 223 257 418 184 93 146 171 142 84 63 70 96 105 85 66 52 35 40 30 20 26 41 48 35 15 -5 18 -42 8 125 75 97 86
84 54 46 36 23 11 -4 -10 -14 -65 -34 -163 -103 177 256 221 130 67 40 87 79 87 83 86 88 74 63 54 43 55 42 40 39 57 47 57 49 1 -29 -6 -29 66 114 81 89
125 105 61 44 31 17 3 -14 -26 -36 -62 -44 -322 -273 149 432 148 121 62 89 133 114 92 89 133 70 74 50 66 42 48 57 42 53 44 65 51 39 -37 -8 -2 17 41 42 55
101 106 108 68 39 28 13 -2 -18 -43 -54 -65 -94 -371 -76 276 427 512 551 118 93 103 150 100 72 114 78 98 66 55 88 80 67 71 63 48 63 56 -37 4 17 -4 34 23 36
90 99 92 82 72 54 26 6 -12 -33 -53 -77 -79 -81 -346 -105 48 462 645 253 135 137 116 173 123 133 153 70 103 129 102 64 69 92 88 83 88 48 6 15 21 18 27 19 17
82 90 96 93 94 77 64 25 -7 -33 -59 -58 -48 -124 -386 -209 -87 129 323 351 175 155 140 193 254 230 178 188 177 149 126 97 86 55 66 84 84 53 18 47 34 30 32 18 17
73 79 78 78 73 67 54 29 -10 -28 -61 -52 -16 -12 -87 -54 -38 45 118 283 284 234 174 188 217 208 223 231 184 211 116 153 78 48 38 71 77 79 22 36 58 35 39 21 14
61 74 77 67 56 60 51 51 19 -15 -49 -55 -94 -100 58 66 136 76 164 150 320 362 250 227 266 245 170 183 169 161 119 114 78 43 59 111 73 78 38 65 68 46 37 41 15
51 58 59 54 40 28 27 43 65 86 11 -8 -75 -108 -47 11 -76 29 153 205 272 531 297 252 297 163 144 144 156 140 161 135 65 79 70 104 95 52 28 60 61 61 35 52 39
38 44 42 29 29 17 24 15 59 70 35 -10 -60 -60 -102 -62 -22 59 45 256 220 193 461 480 314 175 193 148 156 128 145 148 120 91 63 101 123 90 72 39 58 43 58 54 39
26 29 37 29 23 44 32 27 35 58 26 -6 -62 -61 -70 25 -43 6 162 164 256 160 243 488 188 214 265 200 195 195 130 125 127 92 161 114 81 89 83 89 67 73 62 69 37
19 23 21 40 26 34 25 39 20 26 -0 17 -21 38 -35 5 44 -31 32 169 263 351 271 311 225 193 230 197 194 228 120 99 118 115 104 85 132 66 72 75 89 78 92 80 98
17 18 22 32 55 22 28 24 28 56 32 11 -12 -75 -67 -30 25 89 85 52 9 123 174 223 146 232 172 187 139 151 105 107 100 112 216 177 157 1 106 75 64 53 48 62 66
14 13 19 15 21 -3 25 36 61 91 90 12 15 13 24 -31 68 -2 109 76 -103 182 128 149 382 322 181 246 77 103 214 380 397 365 381 195 147 67 116 84 66 71 59 58 49
10 9 31 31 17 1 34 73 73 54 -3 22 44 2 58 -9 -22 25 -23 138 52 63 145 60 157 239 431 266 265 315 384 757 620 604 395 192 215 76 124 104 124 174 139 119 56
5 43 43 34 47 46 76 92 87 12 60 108 47 30 10 -28 -24 36 140 15 133 -1 52 20 88 59 133 444 373 254 375 349 541 273 157 215 157 -20 58 53 41 31 54 81 43
46 37 40 65 47 79 96 112 44 -19 48 78 50 31 163 56 21 -39 70 230 187 188 360 70 -35 -4 -2 140 469 537 287 364 378 486 576 345 187 166 129 93 96 109 65 24 -1
47 68 37 52 69 66 122 103 32 -11 13 13 25 55 71 86 30 63 -66 -50 65 245 255 153 153 19 101 129 218 356 568 510 530 756 544 296 264 159 49 64 34 37 4 13 57
71 93 69 40 25 53 28 33 44 4 11 -22 35 37 59 65 65 45 25 -35 -113 -74 205 161 158 104 57 73 23 96 210 376 488 542 544 244 159 114 190 120 134 114 69 52 28
101 78 25 57 77 19 -34 -50 16 5 -0 12 -1 8 1 27 51 9 13 -4 -4 -123 -36 112 193 210 95 76 -2 137 262 298 354 396 137 277 158 98 65 87 75 79 101 122 104
110 113 60 53 24 2 -25 -51 31 46 19 9 34 27 18 4 32 25 90 9 16 7 -63 -46 90 300 458 336 304 317 462 418 357 319 235 158 75 68 50 62 36 148 128 96 108
101 130 68 82 38 2 -19 -27 83 88 76 37 -1 -20 2 20 29 48 28 19 58 -18 -86 -175 -69 186 222 266 333 309 323 189 283 357 251 40 122 85 118 157 59 56 83 130 154
153 138 60 51 31 14 6 9 48 59 62 54 58 48 21 10 12 38 45 33 24 67 -26 -24 -138 -88 64 4 230 376 374 348 234 143 202 188 149 161 169 172 148 4 84 89 65
61 40 64 88 58 48 30 5 23 40 22 80 88 44 75 47 46 38 43 41 38 40 50 8 -49 -142 -94 -90 -134 117 300 244 172 129 108 223 159 145 237 145 258 160 94 132 173
Wind_Speed
67 68 69 72 74 74 75 74 75 76 78 78 78 77 81 80 81 85 90 69 57 59 54 50 43 43 45 43 39 42 52 43 38 27 29 8 8 11 29 37 22 9 33 21 7
67 67 70 72 75 77 77 75 75 76 76 79 78 78 77 79 88 107 94 87 74 57 57 51 48 44 47 46 42 40 42 39 49 34 24 12 11 14 14 17 27 20 23 13 5
64 66 69 71 73 76 78 77 77 77 76 75 78 79 77 76 95 122 98 90 77 65 66 64 61 55 57 54 43 43 49 44 46 41 32 24 21 24 23 24 19 18 13 8 5
63 64 66 69 73 75 76 78 79 79 78 77 75 77 82 72 93 51 51 64 73 68 71 74 73 70 69 66 57 62 63 62 54 38 39 31 30 25 23 26 40 21 18 10 14
66 63 64 69 72 74 76 78 80 80 79 78 77 74 71 90 110 49 43 48 55 68 76 76 79 72 79 69 71 70 74 63 58 52 43 41 39 41 39 25 29 17 24 21 15
68 67 66 69 72 74 76 77 79 80 81 77 75 72 77 113 65 87 72 61 56 64 78 79 79 77 80 84 80 74 76 81 70 54 51 49 44 48 31 28 28 18 23 19 17
66 67 71 70 71 75 77 77 78 79 81 80 78 76 93 117 91 89 85 86 71 67 75 79 79 77 83 85 83 81 84 76 77 56 58 52 64 41 27 31 30 26 19 24 19
66 69 71 71 72 74 77 76 77 78 78 78 78 84 103 86 89 101 90 88 84 77 75 69 75 86 89 85 82 83 79 82 64 60 64 59 74 43 33 33 38 32 26 23 24
67 70 71 71 72 72 75 75 77 78 76 76 78 82 108 80 89 90 96 93 81 81 72 68 69 86 81 86 89 80 78 74 75 63 60 60 83 57 44 31 39 38 33 30 25
68 71 70 71 71 72 75 75 75 73 67 66 74 88 99 95 77 77 77 95 93 85 84 82 77 88 94 88 98 78 79 84 77 70 66 67 73 64 46 44 45 37 38 36 32
68 71 70 72 72 70 73 71 66 58 56 73 76 96 106 81 72 82 75 77 90 95 108 99 97 101 95 93 91 93 86 82 80 77 66 73 87 67 64 52 50 44 42 38 35
67 70 71 72 71 68 61 51 54 59 83 79 96 111 109 87 96 91 69 75 86 107 104 103 116 108 96 89 92 92 96 96 83 67 75 76 91 81 72 62 52 44 49 47 35
66 68 70 72 73 53 46 53 54 62 75 94 100 106 105 98 116 126 69 74 79 105 108 120 116 104 99 101 100 99 99 96 89 64 75 75 103 98 93 78 64 62 53 50 45
61 65 68 73 52 52 55 49 55 48 75 88 64 67 83 81 110 116 95 74 74 95 106 110 115 105 111 120 100 113 87 89 94 86 88 62 113 100 94 86 78 71 68 61 54
58 62 64 57 48 48 54 59 57 41 74 50 50 40 51 84 73 79 102 92 96 80 83 100 109 116 110 119 105 124 85 89 97 94 99 90 100 117 95 98 83 73 64 61 59
56 60 61 49 36 34 55 54 43 46 66 53 51 54 54 73 97 67 67 85 75 106 113 95 100 105 124 106 97 106 91 89 87 92 112 113 102 145 108 95 85 74 66 64 60
56 56 53 40 27 38 52 41 37 51 52 52 48 42 56 71 91 95 96 95 91 93 91 91 109 93 108 126 109 96 79 90 98 97 104 87 88 93 69 75 93 75 70 66 60
57 49 37 25 23 25 34 29 38 47 49 68 78 79 79 54 59 81 94 110 99 86 76 85 100 98 89 100 109 102 97 89 101 105 107 88 78 133 74 59 51 37 59 61 61
56 43 40 28 18 19 16 25 38 60 51 57 62 67 63 46 50 45 71 99 85 96 104 95 80 70 97 94 93 112 113 96 92 88 106 105 97 150 95 72 64 68 68 77 78
53 49 33 34 22 10 11 18 19 68 66 64 67 62 66 57 56 55 52 47 65 58 63 82 105 77 67 84 97 90 96 101 99 94 95 91 90 127 74 86 81 75 70 60 61
41 45 39 38 23 11 13 20 15 76 79 75 72 73 77 81 70 67 52 53 52 67 66 62 73 70 71 73 80 77 86 83 86 86 101 119 113 87 71 45 38 43 45 46 48
36 39 34 36 30 21 16 15 52 79 69 64 71 70 72 72 76 73 68 58 43 46 63 62 65 87 81 74 78 78 75 76 93 89 91 89 99 33 47 48 42 48 42 36 38
34 32 35 33 30 24 13 12 29 60 67 68 76 69 65 69 69 56 52 42 37 40 51 51 66 93 88 76 64 71 67 68 80 78 89 88 91 58 61 46 40 32 29 32 37
34 41 33 26 25 24 24 26 56 56 64 65 76 66 68 68 67 66 68 52 59 54 36 39 62 80 89 70 62 68 63 55 62 83 81 92 100 51 44 43 46 41 39 39 36
28 33 29 35 32 31 30 31 77 76 69 65 60 71 71 75 71 72 66 54 54 44 45 45 66 73 80 77 77 85 75 62 66 74 82 99 105 87 38 46 44 28 23 25 27
31 35 32 25 29 30 33 36 68 78 61 66 71 74 66 75 73 73 73 71 67 63 47 44 64 63 81 76 85 95 90 81 80 74 91 103 114 97 93 79 70 44 44 57 49
25 21 25 31 29 36 42 48 56 65 69 65 71 70 66 70 69 70 71 75 77 80 80 69 64 69 91 76 79 106 100 93 91 87 90 108 97 88 91 87 82 80 76 67 59
Wind_Direction
334 327 317 307 300 296 293 292 291 289 286 285 283 281 273 273 271 266 258 259 270 265 267 266 263 263 262 265 265 275 274 277 284 289 297 342 291 315 297 285 295 277 293 317 122
335 333 326 316 305 296 293 290 290 289 287 283 284 282 280 274 268 259 257 257 260 264 258 256 258 259 260 262 262 263 268 272 283 292 291 306 287 306 300 282 285 283 294 312 127
336 332 329 324 314 303 294 288 287 287 286 285 281 283 281 275 266 256 258 253 253 254 255 256 258 258 258 259 254 262 262 273 282 283 293 296 292 299 304 289 279 274 263 250 234
335 333 330 325 318 310 300 291 286 284 283 283 284 281 283 263 255 269 270 257 249 246 251 252 253 253 254 255 257 260 263 265 277 286 283 284 287 285 291 290 292 293 301 230 237
337 333 329 323 319 314 306 297 287 283 282 281 281 282 276 253 248 269 280 269 252 242 244 247 249 250 251 255 258 258 260 267 269 275 277 281 282 284 286 279 289 295 284 277 241
341 336 328 321 318 315 310 302 294 284 279 279 281 279 268 255 259 260 263 261 258 246 245 245 249 249 255 253 254 258 261 262 266 270 270 274 278 278 282 279 270 257 281 262 239
339 334 329 322 319 315 309 306 299 290 280 276 273 273 261 253 260 269 265 251 253 252 248 246 245 250 248 253 256 260 260 263 261 264 267 272 269 265 269 286 271 240 250 266 243
339 332 327 323 322 319 311 306 302 296 285 276 274 269 260 263 265 258 261 254 251 254 252 253 247 249 249 252 258 255 259 259 257 258 263 265 267 266 264 268 272 267 248 245 245
339 332 328 324 323 320 317 309 303 297 289 279 272 263 259 265 259 258 254 252 248 247 251 252 249 245 246 246 251 251 247 250 260 254 259 255 265 268 274 259 264 263 251 245 232
339 333 329 327 325 322 316 312 308 300 294 281 270 260 255 253 260 260 259 249 247 246 243 243 244 241 240 238 236 238 245 256 257 255 258 258 262 267 272 265 262 261 257 246 232
339 333 332 329 326 325 318 315 310 301 290 274 268 257 257 262 269 255 258 253 246 243 233 234 235 234 231 232 246 252 253 255 258 259 257 256 263 262 263 268 265 260 259 252 240
339 335 332 331 329 326 321 317 316 313 290 283 271 263 257 260 253 253 260 250 237 234 235 233 235 236 237 242 245 248 252 255 259 260 258 261 262 264 263 259 255 257 263 259 249
340 336 333 331 328 334 329 317 315 317 294 285 277 263 254 248 246 241 254 248 246 235 233 233 231 232 239 241 243 246 248 252 256 256 263 262 261 261 262 262 259 260 259 255 254
343 339 335 331 339 339 327 322 320 327 297 291 287 276 251 246 246 242 242 248 249 239 232 241 239 237 239 242 242 247 242 253 255 254 254 252 262 261 260 260 259 258 258 255 251
346 341 337 341 338 338 328 315 316 325 287 306 298 305 274 238 250 252 239 244 245 247 236 239 237 235 237 237 239 247 252 251 253 255 256 256 261 261 263 262 256 253 245 248 246
346 342 339 343 345 341 324 313 316 302 282 298 303 287 266 248 246 258 249 241 253 248 250 252 244 243 241 243 242 245 249 254 253 253 253 254 257 256 261 262 265 261 257 255 249
346 343 340 339 338 342 328 324 314 288 301 296 297 301 284 261 249 249 245 236 240 243 248 251 247 249 243 243 245 241 240 245 248 248 250 245 254 242 280 262 249 259 264 266 267
345 344 344 341 343 346 342 329 300 297 292 292 278 281 275 281 262 254 245 242 242 245 252 249 246 242 241 238 230 235 231 240 244 246 251 253 255 228 237 265 299 277 268 270 271
346 351 346 348 353 356 352 314 301 282 297 301 292 281 271 269 271 279 261 243 244 242 247 250 253 255 243 241 236 235 238 235 255 258 255 254 252 246 265 266 261 269 269 269 269
348 347 351 3 11 33 333 291 295 261 276 290 282 279 270 274 281 277 267 268 253 259 272 252 251 251 252 246 244 248 234 238 244 250 251 251 250 255 260 265 265 270 272 273 273
353 349 352 3 22 28 324 325 289 257 261 271 275 274 275 272 277 273 264 279 269 265 268 259 248 246 239 242 236 239 239 243 241 249 249 255 255 261 258 266 264 260 269 273 271
353 346 4 2 348 355 336 336 302 261 267 274 277 281 278 277 271 268 267 271 281 276 262 256 254 242 239 242 239 240 243 237 240 244 248 254 254 250 273 264 264 274 274 270 276
350 341 342 350 341 334 309 273 324 289 274 274 267 278 280 275 270 267 273 283 293 277 270 264 248 242 241 243 242 245 245 252 249 247 240 242 246 261 261 268 266 272 284 276 276
351 345 353 353 344 333 330 328 305 290 280 279 269 273 274 270 269 260 269 272 281 278 280 275 255 244 242 248 255 246 254 257 250 243 245 240 242 259 264 258 264 274 278 274 277
353 343 345 342 338 336 331 325 279 275 281 281 283 264 266 265 266 265 269 273 276 282 274 264 256 251 251 256 255 251 254 255 252 250 246 241 241 243 252 284 276 271 278 273 281
343 341 341 328 330 325 323 316 292 278 292 276 272 270 271 264 265 268 272 272 270 273 270 266 260 264 256 258 256 256 255 255 256 256 252 250 247 252 258 269 267 260 273 277 276
338 325 328 332 329 325 321 316 304 286 288 275 273 278 273 275 275 273 271 273 272 266 262 267 267 266 257 263 262 255 253 256 258 258 256 251 254 257 259 262 266 270 274 278 279